When you browse on this site, cookies collect data to enhance your experience and personalize the content and advertising you see.
Visit our Privacy Policy to learn more. By continuing to use the site, you agree to this use of cookies and data.
  • In Norway
  • List of Countries
  • For 7 days
  • Water Temperature
  • Satellite Maps
  • Weather Map
  • Weather Widgets
  • user-avatar
    Login

    Hourly Weather Irbid

    Today, 21 June, Friday

    Time Temperature Precipitation Wind Pressure Humidity
    00:00 +20°C° 0 mm 1 mps 708 mmHg 77%
    01:00 +19°C° 0 mm 1 mps 708 mmHg 80%
    02:00 +19°C° 0 mm 1 mps 707 mmHg 83%
    03:00 +19°C° 0 mm 1 mps 707 mmHg 84%
    04:00 +19°C° 0 mm 1 mps 708 mmHg 84%
    05:00 +19°C° 0 mm 1 mps 708 mmHg 85%
    06:00 +21°C° 0 mm 1 mps 708 mmHg 74%
    07:00 +23°C° 0 mm 2 mps 709 mmHg 64%
    08:00 +25°C° 0 mm 3 mps 709 mmHg 53%
    09:00 +27°C° 0 mm 4 mps 709 mmHg 46%
    10:00 +29°C° 0 mm 5 mps 710 mmHg 39%
    11:00 +32°C° 0 mm 6 mps 710 mmHg 32%
    12:00 +32°C° 0 mm 7 mps 709 mmHg 31%
    13:00 +33°C° 0 mm 8 mps 709 mmHg 30%
    14:00 +33°C° 0 mm 9 mps 709 mmHg 29%
    15:00 +32°C° 0 mm 8 mps 709 mmHg 34%
    16:00 +31°C° 0 mm 8 mps 708 mmHg 40%
    17:00 +28°C° 0 mm 8 mps 708 mmHg 46%
    18:00 +26°C° 0 mm 6 mps 708 mmHg 55%
    19:00 +23°C° 0 mm 5 mps 708 mmHg 65%
    20:00 +22°C° 0 mm 4 mps 708 mmHg 74%
    21:00 +21°C° 0 mm 3 mps 708 mmHg 78%
    22:00 +20°C° 0 mm 3 mps 708 mmHg 83%
    23:00 +20°C° 0 mm 2 mps 708 mmHg 87%

    Tomorrow, 22 June, Saturday

    Time Temperature Precipitation Wind Pressure Humidity
    00:00 +19°C° 0 mm 2 mps 708 mmHg 88%
    01:00 +19°C° 0 mm 2 mps 708 mmHg 89%
    02:00 +18°C° 0 mm 2 mps 708 mmHg 90%
    03:00 +18°C° 0 mm 2 mps 708 mmHg 90%
    04:00 +18°C° 0 mm 2 mps 708 mmHg 90%
    05:00 +19°C° 0 mm 1 mps 708 mmHg 90%
    06:00 +19°C° 0 mm 2 mps 708 mmHg 79%
    07:00 +21°C° 0 mm 2 mps 709 mmHg 69%
    08:00 +24°C° 0 mm 3 mps 709 mmHg 58%
    09:00 +26°C° 0 mm 3 mps 709 mmHg 51%
    10:00 +28°C° 0 mm 4 mps 709 mmHg 43%
    11:00 +30°C° 0 mm 4 mps 709 mmHg 36%
    12:00 +32°C° 0 mm 5 mps 709 mmHg 34%
    13:00 +33°C° 0 mm 6 mps 709 mmHg 31%
    14:00 +34°C° 0 mm 7 mps 709 mmHg 29%
    15:00 +33°C° 0 mm 7 mps 709 mmHg 33%
    16:00 +32°C° 0 mm 7 mps 708 mmHg 36%
    17:00 +29°C° 0 mm 7 mps 708 mmHg 40%
    18:00 +27°C° 0 mm 5 mps 708 mmHg 49%
    19:00 +25°C° 0 mm 4 mps 708 mmHg 57%
    20:00 +23°C° 0 mm 2 mps 708 mmHg 66%
    21:00 +21°C° 0 mm 2 mps 708 mmHg 70%
    22:00 +20°C° 0 mm 2 mps 708 mmHg 74%
    23:00 +21°C° 0 mm 1 mps 708 mmHg 78%

    Day after tomorrow, 23 June, Sunday

    Time Temperature Precipitation Wind Pressure Humidity
    00:00 +20°C° 0 mm 1 mps 708 mmHg 80%
    01:00 +19°C° 0 mm 1 mps 708 mmHg 82%
    02:00 +19°C° 0 mm 1 mps 707 mmHg 84%
    03:00 +19°C° 0 mm 1 mps 707 mmHg 85%
    04:00 +17°C° 0 mm 0 mps 708 mmHg 85%
    05:00 +16°C° 0 mm 0 mps 708 mmHg 86%
    06:00 +21°C° 0 mm 1 mps 708 mmHg 73%
    07:00 +23°C° 0 mm 1 mps 709 mmHg 61%
    08:00 +26°C° 0 mm 2 mps 709 mmHg 48%
    09:00 +28°C° 0 mm 2 mps 709 mmHg 41%
    10:00 +30°C° 0 mm 2 mps 709 mmHg 34%
    11:00 +33°C° 0 mm 3 mps 709 mmHg 27%
    12:00 +34°C° 0 mm 4 mps 709 mmHg 26%
    13:00 +35°C° 0 mm 4 mps 709 mmHg 24%
    14:00 +36°C° 0 mm 5 mps 709 mmHg 23%
    15:00 +35°C° 0 mm 5 mps 709 mmHg 28%
    16:00 +33°C° 0 mm 5 mps 708 mmHg 32%
    17:00 +32°C° 0 mm 5 mps 708 mmHg 36%
    18:00 +29°C° 0 mm 4 mps 708 mmHg 43%
    19:00 +27°C° 0 mm 3 mps 708 mmHg 49%
    20:00 +25°C° 0 mm 2 mps 708 mmHg 55%
    21:00 +24°C° 0 mm 1 mps 708 mmHg 55%
    22:00 +23°C° 0 mm 1 mps 708 mmHg 55%
    23:00 +22°C° 0 mm 1 mps 708 mmHg 55%

    24 June, Monday

    Time Temperature Precipitation Wind Pressure Humidity
    00:00 +22°C° 0 mm 1 mps 707 mmHg 56%
    01:00 +21°C° 0 mm 1 mps 707 mmHg 57%
    02:00 +21°C° 0 mm 1 mps 707 mmHg 58%
    03:00 +20°C° 0 mm 1 mps 707 mmHg 60%
    04:00 +20°C° 0 mm 1 mps 707 mmHg 62%
    05:00 +18°C° 0 mm 0 mps 707 mmHg 64%
    06:00 +23°C° 0 mm 1 mps 708 mmHg 54%
    07:00 +25°C° 0 mm 1 mps 708 mmHg 44%
    08:00 +28°C° 0 mm 1 mps 709 mmHg 34%
    09:00 +30°C° 0 mm 2 mps 709 mmHg 30%
    10:00 +34°C° 0 mm 2 mps 709 mmHg 25%
    11:00 +36°C° 0 mm 3 mps 709 mmHg 20%
    12:00 +37°C° 0 mm 4 mps 709 mmHg 20%
    13:00 +39°C° 0 mm 5 mps 709 mmHg 19%
    14:00 +40°C° 0 mm 6 mps 709 mmHg 18%
    15:00 +37°C° 0 mm 5 mps 708 mmHg 22%
    16:00 +36°C° 0 mm 5 mps 708 mmHg 26%
    17:00 +35°C° 0 mm 5 mps 708 mmHg 29%
    18:00 +33°C° 0 mm 4 mps 707 mmHg 36%
    19:00 +29°C° 0 mm 2 mps 707 mmHg 42%
    20:00 +27°C° 0 mm 1 mps 707 mmHg 48%
    21:00 +26°C° 0 mm 1 mps 707 mmHg 50%
    22:00 +26°C° 0 mm 1 mps 707 mmHg 51%
    23:00 +25°C° 0 mm 1 mps 707 mmHg 53%

    25 June, Tuesday

    Time Temperature Precipitation Wind Pressure Humidity
    00:00 +24°C° 0 mm 1 mps 707 mmHg 55%
    01:00 +23°C° 0 mm 1 mps 707 mmHg 58%
    02:00 +23°C° 0 mm 1 mps 707 mmHg 60%
    03:00 +22°C° 0 mm 1 mps 707 mmHg 63%
    04:00 +22°C° 0 mm 1 mps 707 mmHg 66%
    05:00 +20°C° 0 mm 0 mps 707 mmHg 69%
    06:00 +24°C° 0 mm 1 mps 708 mmHg 59%
    07:00 +27°C° 0 mm 1 mps 708 mmHg 48%
    08:00 +30°C° 0 mm 2 mps 709 mmHg 38%
    09:00 +34°C° 0 mm 2 mps 709 mmHg 32%
    10:00 +36°C° 0 mm 3 mps 709 mmHg 26%
    11:00 +39°C° 0 mm 3 mps 709 mmHg 20%
    12:00 +40°C° 0 mm 4 mps 709 mmHg 19%
    13:00 +41°C° 0 mm 5 mps 709 mmHg 19%
    14:00 +43°C° 0 mm 7 mps 708 mmHg 19%
    15:00 +40°C° 0 mm 6 mps 708 mmHg 21%
    16:00 +39°C° 0 mm 5 mps 708 mmHg 24%
    17:00 +37°C° 0 mm 5 mps 708 mmHg 26%
    18:00 +34°C° 0 mm 4 mps 707 mmHg 32%
    19:00 +31°C° 0 mm 3 mps 707 mmHg 37%
    20:00 +28°C° 0 mm 1 mps 707 mmHg 42%
    21:00 +28°C° 0 mm 1 mps 707 mmHg 44%
    22:00 +27°C° 0 mm 1 mps 707 mmHg 45%
    23:00 +26°C° 0 mm 1 mps 707 mmHg 47%

    26 June, Wednesday

    Time Temperature Precipitation Wind Pressure Humidity
    00:00 +25°C° 0 mm 1 mps 707 mmHg 50%
    01:00 +25°C° 0 mm 1 mps 707 mmHg 52%
    02:00 +24°C° 0 mm 1 mps 706 mmHg 55%
    03:00 +24°C° 0 mm 1 mps 707 mmHg 59%
    04:00 +23°C° 0 mm 1 mps 707 mmHg 63%
    05:00 +23°C° 0 mm 1 mps 707 mmHg 67%
    06:00 +25°C° 0 mm 1 mps 707 mmHg 58%
    07:00 +28°C° 0 mm 1 mps 708 mmHg 49%
    08:00 +30°C° 0 mm 1 mps 708 mmHg 40%
    09:00 +32°C° 0 mm 2 mps 708 mmHg 34%
    10:00 +36°C° 0 mm 3 mps 708 mmHg 28%
    11:00 +38°C° 0 mm 3 mps 709 mmHg 23%
    12:00 +40°C° 0 mm 5 mps 708 mmHg 22%
    13:00 +41°C° 0 mm 6 mps 708 mmHg 20%
    14:00 +43°C° 0 mm 7 mps 708 mmHg 19%
    15:00 +40°C° 0 mm 7 mps 708 mmHg 20%
    16:00 +39°C° 0 mm 6 mps 708 mmHg 21%
    17:00 +37°C° 0 mm 5 mps 707 mmHg 22%
    18:00 +34°C° 0 mm 4 mps 707 mmHg 26%
    19:00 +30°C° 0 mm 3 mps 707 mmHg 30%
    20:00 +28°C° 0 mm 1 mps 707 mmHg 35%
    21:00 +27°C° 0 mm 1 mps 707 mmHg 35%
    22:00 +26°C° 0 mm 1 mps 707 mmHg 36%
    23:00 +26°C° 0 mm 1 mps 706 mmHg 36%
    Show more